Theta_e
289 289 289 289 289 289 289 290 290 291 290 290 290 288 287 286 286 285 285 285 285 285 284 283 282 282 282 282 282 281 281 280 280 280 280 280 280 280 280 279 279 279 279 279 279 278 278 278 278 278 277 277 276 276 276 275 276 276 275 275 276 276
288 288 288 288 288 288 288 287 288 289 290 289 289 288 287 285 285 285 284 284 285 284 283 283 283 282 282 282 281 281 281 280 280 280 280 280 280 280 280 279 279 279 278 278 278 278 277 277 277 277 276 276 276 275 275 275 274 274 274 273 275 276
287 287 287 288 287 288 287 286 287 288 288 288 288 287 285 285 284 285 284 284 284 283 283 282 282 282 282 281 281 281 281 281 281 280 280 280 279 279 279 279 279 278 278 278 278 277 277 276 276 276 276 275 275 275 274 273 273 273 273 273 273 274
286 286 286 286 286 286 286 286 286 286 286 287 287 286 285 284 284 285 284 284 284 283 283 282 282 282 281 281 280 280 280 280 280 280 280 279 279 279 279 279 279 278 278 277 277 276 276 276 276 275 275 275 275 274 275 273 273 272 272 272 272 272
287 286 286 286 286 286 286 285 286 286 285 286 286 285 285 285 284 284 284 283 283 283 282 282 282 281 281 280 280 280 280 280 280 280 280 279 279 279 279 279 278 278 277 277 276 276 275 275 275 275 274 274 275 274 273 273 272 272 271 272 272 272
285 285 285 285 285 285 286 286 286 286 285 285 285 284 284 283 284 283 283 283 282 282 282 282 281 281 280 280 280 280 280 280 279 280 280 279 279 278 278 278 278 277 277 276 276 275 275 275 275 274 274 274 273 273 273 272 272 271 271 271 271 271
285 285 285 285 285 286 286 286 286 286 285 285 284 284 284 284 283 283 283 282 282 281 281 281 281 280 280 280 280 279 279 279 279 279 279 278 278 278 278 278 277 276 276 276 275 275 276 276 275 274 273 273 272 272 272 272 271 271 271 271 271 274
285 285 285 285 285 286 286 286 285 285 285 284 284 284 283 283 283 283 282 282 282 281 281 281 280 280 280 280 279 279 279 279 279 279 279 279 279 278 279 278 277 276 276 276 276 276 276 275 275 274 273 272 271 271 271 271 271 271 271 271 272 272
285 285 285 285 285 285 286 285 285 285 285 284 284 284 283 283 282 282 282 282 282 281 281 281 281 281 280 280 280 280 279 279 279 279 279 279 279 278 278 277 277 277 276 276 276 276 276 275 274 273 272 271 271 271 271 271 271 271 271 271 271 271
285 285 285 285 285 285 285 285 285 285 284 283 283 283 283 283 282 282 282 282 281 281 282 282 281 281 281 280 280 279 279 279 279 279 279 279 278 278 278 277 277 277 276 276 276 276 275 275 274 273 272 271 271 271 270 271 271 271 271 271 271 271
285 285 284 284 284 284 284 284 284 284 283 283 283 282 283 283 282 282 282 281 281 282 282 281 281 281 280 280 279 279 279 280 280 279 279 278 278 278 278 277 277 276 276 276 275 275 274 274 274 273 272 271 271 271 271 271 271 272 272 271 271 271
285 285 284 284 284 284 284 284 284 284 283 283 282 282 282 282 282 282 281 281 281 281 281 281 281 280 280 280 279 279 280 280 279 279 278 278 278 278 277 277 277 276 276 275 275 274 274 274 273 275 278 276 272 271 272 272 271 272 272 271 271 270
285 284 284 284 284 284 284 284 284 283 283 283 282 282 282 282 282 282 281 281 281 281 281 281 280 280 280 280 280 280 280 279 279 278 278 278 277 277 277 276 276 276 276 275 275 274 274 274 273 278 280 280 279 273 272 272 271 271 271 271 271 270
285 285 285 284 284 284 284 284 284 283 283 283 282 282 282 282 282 281 281 281 281 281 280 280 280 279 280 280 280 280 280 279 278 278 278 277 277 276 276 276 276 276 275 275 274 274 273 272 276 280 281 281 281 278 272 271 271 271 271 271 270 270
286 286 286 285 285 285 285 285 284 283 284 283 283 282 282 282 282 282 282 282 281 281 280 280 279 279 279 279 279 279 279 279 278 278 277 277 277 276 275 276 276 275 274 274 273 273 272 271 277 281 282 282 282 281 276 270 271 270 270 271 271 270
287 287 287 287 286 286 286 286 285 285 284 284 283 282 282 282 282 282 282 281 281 280 280 280 280 279 279 280 280 279 278 278 278 278 278 277 276 276 276 275 275 275 274 273 273 272 271 270 276 281 282 283 283 283 279 270 271 271 270 271 271 271
288 287 287 287 287 286 285 285 285 285 284 284 283 283 282 282 282 282 282 281 281 280 280 280 280 279 279 280 279 279 278 278 278 278 277 277 276 276 275 275 274 274 273 272 271 270 270 270 276 281 283 283 284 284 282 271 271 271 271 271 271 271
289 288 288 288 287 286 286 285 285 284 284 284 283 283 283 282 282 282 281 281 280 280 280 280 280 280 279 279 279 278 278 278 278 277 277 276 276 275 275 274 274 273 271 271 269 269 269 270 277 280 283 283 284 284 279 272 272 271 270 270 271 271
289 289 288 287 287 286 285 285 285 284 283 283 283 282 282 282 282 281 281 281 280 280 280 280 280 280 279 279 278 278 278 278 277 277 276 275 275 274 273 273 272 271 270 269 269 269 270 269 275 280 282 283 284 283 275 272 272 271 270 270 270 271
289 288 288 286 286 286 285 285 284 284 283 283 283 282 282 282 282 282 281 281 281 280 281 281 280 280 280 279 279 279 279 279 278 277 275 275 274 274 273 272 270 269 269 269 269 269 269 269 272 279 282 283 284 282 275 273 272 271 271 271 271 270
288 287 287 286 285 285 284 284 284 283 283 283 282 282 282 281 282 282 281 281 281 281 281 281 281 281 280 280 280 279 279 278 277 277 274 274 273 273 270 269 269 268 267 268 269 271 270 269 271 278 281 283 283 282 274 272 271 270 270 270 269 269
286 286 286 285 285 284 284 284 284 283 282 282 282 281 281 282 282 283 282 281 281 281 281 281 281 281 280 280 280 279 278 277 275 274 273 271 271 270 269 268 268 268 268 267 266 267 269 269 268 271 280 282 283 283 275 272 271 270 269 268 268 266
286 286 286 285 284 284 284 284 283 283 282 282 281 281 282 283 282 282 281 281 280 280 280 280 281 281 280 280 279 279 277 275 275 272 271 271 270 268 267 267 267 268 268 266 266 266 267 268 268 268 277 281 283 283 281 272 271 271 270 268 267 267
285 284 284 283 284 284 284 284 283 282 281 281 281 282 282 281 281 281 280 280 280 280 280 280 280 280 280 279 277 276 275 273 273 272 271 270 269 269 269 267 266 267 267 266 265 265 266 267 270 267 272 278 281 283 284 275 272 272 269 267 266 266
284 283 283 282 282 283 283 283 282 281 281 281 282 281 280 280 280 280 279 279 279 279 279 279 278 278 278 277 276 275 274 272 271 270 270 269 268 269 268 268 267 266 267 267 266 266 266 266 266 272 269 274 278 281 283 283 277 278 272 268 268 267
282 281 280 281 282 282 283 283 281 280 280 281 279 279 278 278 278 278 278 278 278 278 278 277 277 277 276 276 275 274 274 272 271 270 270 269 269 268 268 268 267 266 267 267 268 267 267 266 265 268 273 272 275 279 281 283 283 281 274 270 269 268
280 280 279 279 279 280 281 282 281 280 280 280 279 278 278 277 276 277 277 277 277 277 276 274 275 275 274 274 274 274 274 272 270 270 268 268 268 268 269 269 268 267 268 268 269 270 269 267 265 265 268 273 275 276 278 280 282 283 282 276 272 271
279 280 278 276 276 278 278 279 281 280 279 276 277 277 277 276 276 276 276 275 275 274 273 273 272 273 274 274 274 275 275 274 271 272 270 268 269 269 269 270 269 268 268 268 269 270 270 267 265 265 264 267 270 273 276 278 279 280 281 281 277 276
279 278 278 278 275 275 275 274 274 274 273 274 275 274 275 275 276 275 272 273 272 269 271 273 273 272 271 270 272 272 273 273 272 271 270 269 269 269 269 270 269 269 268 268 269 270 269 266 264 264 263 263 264 265 268 270 272 276 279 278 279 279
278 276 275 277 274 272 271 272 272 269 270 270 271 271 273 273 273 274 271 269 269 269 269 271 270 271 270 270 271 272 271 271 271 271 271 270 270 270 270 269 269 269 269 269 269 268 264 267 264 264 263 262 263 264 266 267 269 271 273 275 275 276
275 274 273 273 271 271 271 270 269 267 269 269 267 270 272 271 269 268 266 266 268 269 267 269 270 270 271 269 268 270 271 272 271 271 271 268 265 269 270 270 270 270 268 266 267 266 267 267 267 266 269 266 269 266 265 266 267 269 271 274 276 275
272 272 272 271 270 270 269 268 269 268 267 265 266 269 271 269 269 267 267 267 269 268 267 268 268 266 268 269 269 268 265 268 274 272 269 268 272 275 276 275 269 265 263 266 267 266 268 268 267 273 275 275 275 275 275 274 273 273 272 273 276 276
270 270 270 269 267 267 267 267 266 266 265 266 265 267 268 268 269 268 267 265 267 268 267 266 266 264 264 264 265 263 265 265 266 275 276 275 274 274 276 277 277 277 275 270 267 268 275 275 276 277 277 277 277 277 277 277 277 276 276 276 273 273
270 271 271 268 268 267 267 266 263 262 262 262 262 264 264 266 269 268 268 266 265 266 266 264 265 263 263 263 262 262 263 263 264 266 272 275 276 277 277 277 277 277 278 278 276 271 265 273 276 277 277 278 278 277 277 278 278 278 278 277 277 271
271 270 270 269 269 268 265 263 260 259 259 259 261 262 264 264 266 266 264 263 263 264 265 263 263 262 262 262 261 261 261 262 263 265 265 265 272 274 275 277 278 278 278 278 278 279 278 275 274 276 277 277 277 278 277 278 278 279 279 278 275 272
270 269 269 267 266 264 262 259 258 258 257 258 259 260 262 261 262 262 263 262 262 262 262 262 262 262 261 261 261 261 261 262 262 262 261 260 261 264 268 273 275 276 277 277 278 278 278 278 278 278 277 276 276 277 277 277 276 278 279 278 274 273
268 267 266 265 263 261 259 257 257 256 256 257 257 259 260 261 261 259 262 264 262 261 261 261 262 261 260 260 260 260 261 261 260 262 260 259 259 260 261 260 261 268 273 273 274 275 276 276 276 277 277 277 277 277 277 278 275 273 274 275 275 274
263 262 262 261 260 259 258 256 256 256 256 256 256 258 259 260 260 259 261 261 260 259 259 259 259 260 260 259 259 258 259 259 259 260 258 259 259 258 257 256 256 259 266 271 271 272 273 273 274 274 275 275 275 275 275 272 272 272 272 272 273 273
Wind_Speed
11 11 11 9 9 9 9 9 9 10 10 11 13 14 12 12 9 10 10 11 10 9 10 10 9 8 8 8 8 9 10 10 9 9 9 8 7 8 8 8 8 7 6 6 7 6 6 4 5 5 5 5 7 5 6 4 5 5 4 2 3 2
11 11 12 12 11 11 9 9 8 12 12 11 10 10 10 10 11 10 12 10 10 10 8 7 8 8 8 9 10 10 10 10 10 10 9 10 8 7 8 8 8 8 8 6 7 6 5 5 4 5 5 5 6 6 6 5 5 5 4 2 2 3
10 9 8 9 9 8 8 9 11 11 10 11 11 13 11 11 11 11 11 10 10 11 12 11 9 10 9 9 9 10 10 9 9 9 9 8 8 8 8 8 8 8 8 8 7 7 6 6 6 5 6 6 6 5 5 5 5 5 4 4 3 2
9 8 8 8 9 10 10 9 9 10 11 11 11 11 12 12 11 12 11 10 10 12 12 11 9 9 9 10 9 9 10 9 9 9 8 9 8 8 9 9 7 7 8 7 6 6 5 5 6 6 6 7 7 5 5 6 6 5 4 4 4 3
11 11 12 12 12 11 11 10 11 12 11 12 12 13 12 12 12 10 10 11 11 12 10 10 10 10 11 11 10 10 10 9 9 8 10 9 8 6 7 8 8 8 7 7 6 6 6 6 6 5 6 6 7 7 5 5 5 5 5 4 4 4
8 9 11 12 11 12 13 12 11 11 12 12 11 13 12 10 10 11 11 11 11 11 11 11 11 12 12 12 10 12 10 10 9 9 9 9 8 9 7 7 8 8 8 7 7 6 6 6 6 6 5 6 6 6 6 5 5 4 4 4 4 4
12 13 12 13 12 12 13 13 13 13 12 11 13 12 12 11 10 11 11 12 13 12 12 12 12 13 13 12 11 12 11 10 10 9 9 9 9 8 8 7 7 8 8 8 9 8 8 8 8 7 6 4 4 6 6 5 5 4 4 4 4 4
10 10 11 12 13 13 13 12 12 12 12 13 11 12 12 12 10 12 12 12 14 13 13 13 12 13 14 13 11 12 11 11 10 10 8 9 11 9 8 10 8 8 9 8 8 8 8 8 7 8 7 6 5 5 5 5 5 5 4 4 4 4
16 15 14 13 12 11 12 13 13 12 12 12 11 11 12 12 12 12 13 13 14 13 14 14 14 13 13 12 11 10 10 11 10 10 11 9 10 11 10 9 9 8 8 8 7 8 9 8 7 7 6 5 5 6 5 5 5 4 4 4 4 4
12 13 14 12 12 11 11 11 12 13 13 14 12 11 12 11 13 13 13 13 13 14 15 14 13 13 12 10 10 11 11 10 11 11 9 9 10 10 10 11 10 8 7 7 7 7 6 7 6 6 6 6 6 6 5 6 6 5 4 4 4 4
15 13 11 12 10 12 13 12 12 11 10 11 12 12 14 13 13 14 14 13 14 15 13 11 10 9 10 11 11 11 11 11 10 10 9 9 9 8 9 9 9 9 8 6 6 6 6 7 7 7 8 8 7 6 7 6 6 6 6 5 5 4
10 12 12 12 14 14 13 13 13 13 14 13 12 13 12 12 14 14 14 15 14 12 11 11 10 11 11 11 12 12 11 11 11 10 10 10 9 9 8 8 8 8 9 9 8 7 6 6 5 7 13 10 8 7 6 6 6 6 6 6 5 4
11 11 13 15 16 16 15 13 11 10 11 11 12 12 12 12 13 13 14 14 12 11 11 11 12 11 13 13 11 10 11 12 10 9 9 9 9 9 9 8 9 9 8 9 9 9 7 6 6 12 15 15 14 8 7 7 6 6 6 5 6 6
14 16 18 18 16 15 14 13 13 12 14 12 12 12 10 11 13 14 13 13 11 11 13 12 12 12 12 12 12 11 10 9 9 10 10 9 9 8 7 9 9 8 8 7 8 8 8 7 9 16 16 16 16 12 8 6 6 6 6 6 6 5
18 18 16 14 15 17 17 14 12 14 14 12 11 9 11 13 12 13 12 12 12 12 12 11 12 12 11 12 11 10 10 10 10 10 11 12 9 7 9 10 9 10 8 8 9 9 8 7 12 17 17 16 16 16 11 6 6 7 6 6 6 6
10 11 13 13 12 12 10 12 14 11 8 9 8 11 11 12 12 11 12 11 11 11 11 11 11 11 11 10 10 10 10 11 12 11 9 8 8 9 9 8 10 9 9 10 10 9 7 8 11 17 17 16 17 17 13 6 7 6 7 7 7 6
10 9 10 11 11 10 10 10 9 8 9 10 11 11 12 12 11 11 11 12 11 10 10 11 11 11 11 10 10 10 11 11 10 10 10 10 11 11 12 11 11 10 9 9 8 7 8 8 13 17 17 17 17 18 14 6 6 6 6 6 6 7
12 12 11 7 9 11 12 12 10 10 10 9 10 10 10 11 11 11 9 11 10 11 11 11 11 11 10 10 10 11 11 11 12 12 9 8 7 6 5 5 6 9 9 8 7 7 9 8 15 17 17 17 17 18 9 8 8 7 7 7 7 7
9 8 7 8 10 10 11 9 10 9 9 10 10 10 10 10 11 12 12 11 10 11 11 12 12 11 11 11 11 11 12 12 12 10 7 9 9 9 9 10 10 8 9 8 8 10 9 8 13 17 18 17 18 14 7 7 7 7 8 8 7 7
5 6 9 9 9 9 8 10 11 11 10 11 10 11 11 11 14 13 12 12 11 12 12 11 11 11 11 11 13 14 13 10 7 8 8 11 11 11 12 9 7 6 7 9 10 11 11 10 11 18 18 18 19 14 9 8 8 8 8 8 7 7
7 7 8 9 10 9 10 11 12 11 11 10 11 11 11 14 14 13 13 12 10 9 10 10 10 11 12 13 13 12 12 11 11 8 7 8 7 8 5 6 7 7 6 8 9 8 10 9 10 16 18 19 20 14 8 8 8 8 9 8 8 7
8 7 8 10 9 9 11 11 11 11 11 11 10 11 13 16 14 10 8 8 9 9 9 9 11 11 11 13 11 9 9 6 6 8 9 8 7 7 6 6 6 8 9 7 7 8 10 10 9 10 19 19 20 19 9 8 8 11 11 9 8 7
7 8 7 6 8 9 10 10 10 11 10 10 11 14 15 9 6 8 8 8 7 8 9 8 10 12 11 10 10 8 6 6 8 6 7 8 7 6 6 7 7 7 8 6 7 7 9 9 9 10 17 19 20 21 15 9 12 11 9 8 8 8
6 6 5 5 8 9 9 9 10 9 8 8 12 13 5 6 7 7 7 8 8 8 9 9 8 8 9 7 7 8 8 6 6 7 7 6 6 8 8 6 6 7 8 6 6 8 10 8 10 8 13 18 20 21 22 11 12 11 8 8 8 8
7 7 6 6 7 8 8 10 9 8 7 11 11 5 6 5 6 7 7 7 8 8 8 8 9 9 7 8 9 9 9 7 7 6 7 7 7 8 9 8 8 7 8 8 8 8 9 9 9 15 12 17 20 22 23 22 12 16 10 10 12 11
7 7 5 5 5 6 7 10 9 8 9 10 3 5 5 6 5 6 7 7 7 7 7 8 8 8 7 8 8 8 8 8 8 7 8 8 8 8 9 8 7 7 9 11 11 9 10 9 8 12 18 15 20 21 22 23 23 19 12 10 10 7
9 8 6 4 5 4 6 6 9 8 9 4 5 5 6 6 6 7 7 7 7 8 7 6 7 7 7 7 9 9 9 7 7 8 6 7 7 8 9 10 8 10 11 10 11 12 10 8 8 9 12 17 17 19 20 22 24 25 23 12 9 8
7 8 7 4 3 4 4 5 7 10 4 3 4 5 6 7 7 7 7 7 6 7 6 7 6 6 7 7 8 9 9 10 10 10 8 8 9 9 10 11 8 9 10 11 12 12 11 5 6 8 6 7 10 12 17 19 20 22 23 23 11 14
7 6 6 6 2 3 4 4 3 3 4 5 5 5 6 7 7 6 5 6 5 4 6 7 7 6 5 5 5 6 6 7 7 8 8 9 9 9 10 10 9 10 9 11 12 11 7 4 5 5 4 5 6 7 7 8 11 16 18 15 14 13
7 6 5 6 3 3 4 4 4 4 4 4 4 5 6 6 6 7 6 6 5 6 6 7 7 8 7 7 7 7 7 7 7 9 11 12 12 11 11 10 9 10 11 10 9 7 6 8 6 6 6 6 6 7 8 9 10 11 10 11 9 7
6 5 4 3 3 3 4 4 3 2 4 4 4 5 5 5 4 4 5 5 6 7 6 7 8 8 8 7 7 8 8 9 9 9 8 3 3 7 8 8 8 8 6 7 7 7 8 8 9 6 7 10 12 11 9 9 10 10 10 12 12 7
5 5 4 2 2 4 4 3 2 2 2 2 3 4 5 4 4 4 4 4 4 4 5 5 6 5 6 6 7 6 5 4 5 6 6 5 2 7 10 8 8 5 4 6 7 6 9 11 6 4 13 16 17 20 20 17 16 16 13 12 17 12
5 5 5 3 3 4 4 4 3 4 5 4 2 1 3 4 4 3 3 3 4 4 4 3 3 2 3 2 3 3 4 4 3 5 7 7 7 8 9 11 12 12 10 8 7 7 14 16 16 16 14 15 16 17 18 19 19 20 19 18 11 11
5 5 5 3 4 5 6 7 7 7 7 7 6 3 1 2 3 2 2 1 0 0 1 1 1 1 2 1 1 2 2 2 4 6 4 5 9 10 11 12 13 13 14 16 13 8 5 11 14 15 15 16 16 16 16 17 19 20 19 18 18 10
4 4 4 5 6 7 7 8 7 7 7 7 6 4 1 0 0 0 0 1 1 1 1 1 1 1 2 2 2 1 1 3 4 5 6 4 4 5 9 12 12 13 14 15 16 17 13 9 11 13 14 15 15 16 16 17 19 18 18 18 13 10
5 5 5 6 7 8 8 8 7 7 7 6 5 4 4 4 4 3 2 1 1 1 1 1 1 1 1 1 2 2 3 2 3 4 2 3 7 6 4 4 6 9 12 14 15 15 14 15 15 14 13 12 12 14 16 16 12 16 18 16 10 9
8 8 7 8 8 8 8 7 5 5 5 5 4 4 6 5 5 5 6 7 4 2 1 1 1 1 1 1 1 2 2 2 1 1 1 2 2 3 4 5 6 8 9 6 6 8 9 9 9 9 10 10 11 14 16 15 9 8 7 9 8 7
9 7 6 7 7 8 8 6 6 6 5 5 4 6 6 6 5 5 4 4 4 4 3 2 1 1 2 2 1 1 1 1 1 2 1 1 0 1 1 3 2 2 6 7 7 10 10 12 12 12 11 11 12 13 13 5 4 4 4 4 5 6
Wind_Direction
183 179 179 179 179 180 181 174 171 169 171 174 172 171 173 168 167 161 162 164 163 166 168 164 160 157 151 148 145 146 147 150 153 154 150 144 151 149 147 140 136 138 141 140 130 122 123 119 120 120 119 121 119 115 119 121 119 119 118 117 118 129
182 178 175 176 177 178 181 175 174 175 174 172 172 166 163 164 166 165 165 169 162 161 158 162 159 154 153 153 152 155 156 158 156 154 155 161 153 154 147 141 146 149 142 135 127 126 128 129 129 135 136 127 125 130 126 133 123 121 124 102 96 120
178 177 177 177 176 178 175 177 181 176 168 173 171 168 168 169 169 166 167 162 166 161 166 164 161 159 155 154 160 155 158 159 158 160 157 146 158 153 151 152 152 149 139 132 137 143 148 148 149 151 146 134 134 132 132 129 124 127 133 121 106 119
177 173 171 174 172 177 179 178 175 177 176 175 171 169 173 171 172 171 165 166 163 169 164 163 160 156 155 157 159 160 161 164 163 160 155 159 159 158 157 155 152 142 136 137 146 153 155 158 157 159 149 142 138 139 138 132 131 132 148 138 142 149
178 178 177 178 182 180 178 178 183 181 179 176 179 174 181 176 171 166 162 162 166 169 164 160 161 159 161 162 164 165 167 166 164 164 161 160 159 164 162 158 150 142 139 144 154 159 164 167 166 163 148 150 149 146 144 143 144 150 157 162 170 162
172 172 182 182 183 183 184 184 184 183 183 182 176 181 172 170 170 165 164 163 165 164 162 166 163 164 167 169 170 170 170 167 167 167 163 160 160 162 165 155 146 141 149 155 162 169 169 171 170 157 152 155 155 148 149 151 150 155 164 166 172 172
183 189 186 185 186 187 186 186 187 183 184 181 180 179 173 168 166 167 167 165 164 167 169 170 170 170 172 172 172 173 170 170 166 168 165 160 166 168 157 153 144 149 156 167 173 173 178 179 168 153 150 158 159 150 149 155 154 159 166 174 180 186
187 189 193 192 193 189 186 187 185 185 184 187 180 173 171 172 167 171 168 169 167 171 174 174 174 176 176 174 174 174 173 169 169 167 168 171 168 166 167 156 160 164 171 174 178 180 180 178 170 155 156 163 159 150 153 155 159 163 167 179 188 188
198 196 192 194 192 189 188 186 186 186 185 183 183 178 172 170 171 172 172 173 173 173 179 179 180 176 177 177 174 172 172 172 171 170 173 177 173 168 165 166 163 170 172 179 178 185 182 177 165 150 153 163 163 159 160 164 166 171 177 189 190 194
196 196 196 190 191 189 189 190 189 186 185 183 180 175 173 173 174 175 176 175 178 181 183 182 179 177 177 173 172 176 175 172 174 176 172 170 174 174 172 169 172 169 171 179 185 188 184 172 159 154 160 169 169 164 168 169 173 177 184 185 192 190
199 194 191 192 184 190 191 188 189 186 186 184 182 178 182 174 173 177 179 181 184 187 182 175 177 174 170 171 174 177 178 178 176 173 173 176 177 176 174 169 165 164 171 178 184 184 187 180 173 168 172 173 175 171 174 176 179 180 183 190 195 201
190 192 187 186 192 192 192 192 191 190 185 186 183 182 180 171 180 178 182 186 189 182 176 175 173 172 171 174 181 181 178 176 176 176 176 180 180 175 170 167 169 172 177 176 181 187 188 191 180 183 183 180 172 172 172 174 184 184 187 192 203 214
192 186 191 194 191 193 194 195 191 186 188 185 183 185 182 178 177 184 185 189 186 178 172 173 177 172 178 182 178 179 179 179 177 176 179 180 179 176 171 169 175 181 179 181 182 188 195 193 191 189 190 187 179 168 174 180 186 186 187 197 200 210
192 193 196 195 192 189 190 191 188 185 193 186 184 181 173 184 186 185 188 187 178 177 178 179 174 177 181 178 183 182 181 176 175 180 181 179 179 179 169 180 185 180 181 183 190 196 199 198 196 195 195 192 187 177 176 180 184 187 194 197 206 211
197 198 197 191 191 192 195 185 178 193 192 185 182 164 178 190 192 189 186 184 182 182 179 176 178 181 180 185 183 180 177 177 179 184 183 188 183 166 178 186 179 189 185 186 191 201 203 207 203 200 199 194 192 187 176 184 186 190 198 199 205 208
202 201 198 199 199 196 183 185 192 189 175 170 164 178 183 188 194 192 189 183 185 180 178 179 179 184 185 182 181 178 180 182 190 189 185 176 172 183 183 185 191 188 191 192 195 201 204 207 211 204 201 198 194 193 181 183 189 199 199 202 204 209
196 191 187 190 183 174 173 187 184 167 168 171 176 183 183 190 190 194 190 187 183 176 177 180 183 186 186 184 180 180 186 189 188 185 188 186 187 184 188 188 190 198 192 195 195 198 206 214 212 210 205 200 198 197 190 177 192 198 206 207 208 213
190 191 193 167 159 175 180 184 173 171 178 170 176 177 183 185 192 196 191 190 183 180 180 181 186 189 185 182 182 186 190 191 192 192 187 184 189 195 185 201 202 196 196 197 190 196 216 220 213 213 208 204 202 201 187 176 192 201 206 213 214 215
182 182 154 162 173 172 181 167 164 165 160 168 177 175 180 183 194 198 196 194 184 183 183 186 187 187 185 185 184 190 194 194 196 194 176 184 192 189 197 202 199 197 195 193 195 202 218 219 216 213 211 206 203 200 182 183 191 204 209 221 216 218
146 148 155 157 167 169 155 156 162 164 167 174 174 176 184 189 201 199 196 194 188 189 186 186 185 187 188 184 193 196 200 198 192 192 181 188 189 198 206 197 196 201 199 198 204 205 208 219 215 214 212 209 206 200 188 189 194 208 215 225 224 216
148 145 143 150 162 161 153 155 159 165 176 175 178 181 188 199 203 198 196 195 188 183 183 186 187 190 190 195 201 198 196 195 195 184 175 200 199 210 187 183 199 209 212 213 214 210 214 226 219 216 215 211 209 205 184 188 194 208 221 220 227 223
116 130 148 164 163 148 152 154 160 170 174 180 175 185 199 205 202 193 189 184 181 181 185 187 190 194 194 201 201 196 201 184 162 177 187 196 198 198 189 195 204 212 222 214 215 220 220 225 227 220 220 215 213 209 187 189 188 215 220 217 220 220
131 147 155 148 140 144 149 153 160 175 178 174 181 201 208 194 170 179 182 175 175 181 187 190 192 196 200 198 197 191 183 179 186 172 178 194 193 189 199 201 211 220 232 218 221 226 234 227 229 228 223 222 217 214 197 196 208 215 214 216 216 221
92 93 92 115 139 145 150 155 165 169 167 174 201 210 159 153 170 163 164 174 181 185 187 191 196 196 196 184 168 176 191 189 178 185 188 182 184 200 211 210 215 223 237 234 227 231 236 235 232 231 231 229 226 223 215 201 217 207 204 216 224 226
110 112 118 127 136 144 151 150 156 160 165 193 207 156 151 154 152 160 168 176 181 186 188 189 188 188 183 184 183 184 191 179 182 187 176 181 191 202 212 217 216 221 237 243 238 234 235 232 234 232 229 232 232 231 228 222 213 213 207 209 228 225
107 103 93 104 125 138 147 153 152 161 179 208 132 142 137 144 152 153 165 178 186 184 189 190 190 189 186 183 177 184 186 185 189 185 189 188 189 198 213 224 213 219 235 239 244 239 233 228 224 234 233 231 234 238 237 235 231 219 208 210 232 231
112 103 86 79 111 131 145 152 149 162 193 183 140 143 150 147 151 159 175 185 188 192 190 180 186 189 187 183 176 184 193 192 176 190 196 180 197 202 214 223 205 214 227 235 240 244 237 220 219 230 236 238 240 242 245 245 242 239 231 220 227 214
98 106 110 85 101 131 134 146 154 171 192 148 140 146 144 149 151 172 186 186 187 190 170 179 193 191 192 186 190 196 195 188 187 195 191 188 205 208 213 224 210 220 226 234 241 245 243 215 209 229 224 229 249 252 251 253 255 250 246 244 229 213
110 121 128 138 145 107 95 100 76 108 123 134 141 140 143 151 165 172 174 181 176 159 169 183 190 191 191 194 198 203 197 189 191 196 194 198 205 212 218 224 218 223 227 233 242 247 257 238 227 222 209 204 220 240 259 272 271 265 258 252 247 237
136 145 147 152 140 89 93 96 101 97 99 118 124 135 137 148 164 168 177 171 162 173 173 187 180 180 191 198 191 198 206 206 194 197 205 201 204 205 219 219 222 226 227 235 248 261 268 258 240 224 204 200 203 218 224 231 236 236 234 243 241 233
141 138 127 125 113 113 111 114 112 96 100 117 124 128 128 141 150 146 158 165 159 180 182 185 186 187 190 195 204 216 205 198 197 210 229 236 182 207 216 219 232 233 232 232 237 236 258 262 252 236 190 207 206 209 214 224 227 226 229 231 231 232
111 118 115 120 129 118 117 110 91 35 43 81 128 128 131 145 145 153 182 178 186 185 180 193 197 195 192 193 204 212 260 273 219 216 213 242 222 212 225 215 228 217 195 223 239 202 228 252 262 219 218 223 223 226 225 227 228 228 228 227 227 223
106 112 106 110 102 111 103 79 29 24 15 19 12 77 126 138 152 177 185 176 206 196 200 191 197 195 189 192 183 189 215 268 300 259 240 229 219 235 243 242 246 239 214 201 243 239 238 250 262 262 256 251 247 243 243 242 241 237 232 223 214 227
122 131 136 123 104 93 86 68 38 24 9 7 5 14 115 145 148 177 210 195 269 114 146 141 153 140 155 138 117 167 193 233 270 297 292 264 258 253 248 249 251 253 256 252 247 238 234 256 262 266 272 270 263 259 256 254 250 245 237 228 218 221
137 115 111 105 102 90 76 66 29 12 11 2 356 5 54 70 99 119 103 124 123 107 109 119 126 143 149 170 168 179 165 194 229 262 291 325 331 296 269 264 263 264 263 262 266 269 262 237 223 249 263 268 267 264 263 258 255 250 243 233 227 223
89 86 85 86 83 82 69 58 18 8 352 353 349 30 79 77 77 79 98 119 133 113 105 125 148 148 173 172 164 173 173 207 200 221 261 314 319 335 340 326 297 281 276 275 276 273 274 279 273 264 260 259 264 266 264 260 257 253 246 239 231 229
77 65 61 78 80 75 69 51 10 351 345 354 355 44 60 59 59 57 54 64 78 99 121 134 126 137 139 133 160 171 181 198 193 173 182 209 234 269 292 300 324 339 357 4 1 1 344 340 339 335 336 322 280 263 260 262 260 255 258 257 259 248
73 67 63 73 78 77 70 40 0 354 352 359 15 56 61 58 60 62 62 52 58 63 64 77 95 120 131 152 160 148 158 137 145 154 175 143 156 184 247 299 299 293 317 350 9 1 0 353 351 348 346 342 350 353 356 341 301 294 284 270 269 272